Location: Aciu?a
(46.2833°N, 22.4500°E)
Time: 11:19:04
(UTC+00:00)

Cosmos 2322 Rocket - Pass Details

Date: 25 October 2021
Orbit: 832 x 852 km, 71.0° (Epoch: 07 December)

Event Time Altitude Azimuth Distance (km) Brightness Sun altitude
Rises 17:49:43 0° 233° (SW) 3,367 6.0 -25.3°
Reaches altitude 10° 17:52:22 10° 243° (WSW) 2,438 5.3 -25.8°
Maximum altitude 17:57:25 34° 308° (NW) 1,347 3.7 -26.6°
Drops below altitude 10° 18:02:31 10° 12° (NNE) 2,457 4.6 -27.5°
Enters shadow 18:03:47 - 18° (NNE) 2,894 4.9 -27.7°
